When you browse on this site, cookies collect data to enhance your experience and personalize the content and advertising you see.
Visit our Privacy Policy to learn more. By continuing to use the site, you agree to this use of cookies and data.
  • In United Kingdom
  • List of Countries
  • For 7 days
  • Water Temperature
  • Satellite Maps
  • Weather Map
  • Weather Widgets
  • user-avatar
    Login

    Hourly Weather Belize

    Today, 21 March, Thursday

    Time Temperature Precipitation Wind Pressure Humidity
    00:00 +25°C° 0 mm 4 mps 761 mmHg 86%
    01:00 +25°C° 0.3 mm 4 mps 761 mmHg 87%
    02:00 +25°C° 0.3 mm 4 mps 761 mmHg 88%
    03:00 +25°C° 0.3 mm 4 mps 761 mmHg 89%
    04:00 +25°C° 0.7 mm 4 mps 761 mmHg 90%
    05:00 +24°C° 0.7 mm 3 mps 761 mmHg 91%
    06:00 +24°C° 0 mm 3 mps 762 mmHg 92%
    07:00 +25°C° 1.2 mm 3 mps 762 mmHg 90%
    08:00 +26°C° 1.2 mm 3 mps 763 mmHg 88%
    09:00 +26°C° 1.2 mm 3 mps 763 mmHg 86%
    10:00 +27°C° 0.6 mm 4 mps 763 mmHg 82%
    11:00 +27°C° 0.6 mm 4 mps 763 mmHg 78%
    12:00 +28°C° 0.6 mm 4 mps 763 mmHg 74%
    13:00 +28°C° 0.1 mm 4 mps 762 mmHg 72%
    14:00 +29°C° 0.1 mm 5 mps 762 mmHg 69%
    15:00 +29°C° 0.1 mm 5 mps 761 mmHg 67%
    16:00 +28°C° 0.2 mm 5 mps 761 mmHg 72%
    17:00 +27°C° 0.2 mm 4 mps 761 mmHg 77%
    18:00 +26°C° 0.2 mm 4 mps 761 mmHg 82%
    19:00 +26°C° 0 mm 4 mps 762 mmHg 82%
    20:00 +26°C° 0 mm 4 mps 762 mmHg 82%
    21:00 +26°C° 0 mm 4 mps 762 mmHg 82%
    22:00 +25°C° 0.1 mm 3 mps 762 mmHg 83%
    23:00 +25°C° 0.1 mm 3 mps 763 mmHg 84%

    Tomorrow, 22 March, Friday

    Time Temperature Precipitation Wind Pressure Humidity
    00:00 +25°C° 0.1 mm 2 mps 763 mmHg 85%
    01:00 +24°C° 0.7 mm 2 mps 762 mmHg 87%
    02:00 +24°C° 0.7 mm 3 mps 762 mmHg 89%
    03:00 +24°C° 0.7 mm 3 mps 762 mmHg 90%
    04:00 +24°C° 1.4 mm 3 mps 762 mmHg 91%
    05:00 +24°C° 1.4 mm 3 mps 762 mmHg 92%
    06:00 +22°C° 1.4 mm 4 mps 763 mmHg 93%
    07:00 +25°C° 0.7 mm 4 mps 763 mmHg 86%
    08:00 +26°C° 0.7 mm 4 mps 764 mmHg 79%
    09:00 +27°C° 0.7 mm 5 mps 764 mmHg 72%
    10:00 +28°C° 0.2 mm 5 mps 764 mmHg 67%
    11:00 +29°C° 0.2 mm 5 mps 764 mmHg 61%
    12:00 +30°C° 0.2 mm 5 mps 763 mmHg 55%
    13:00 +30°C° 0 mm 5 mps 763 mmHg 56%
    14:00 +30°C° 0 mm 5 mps 762 mmHg 58%
    15:00 +29°C° 0 mm 5 mps 761 mmHg 59%
    16:00 +28°C° 0 mm 5 mps 761 mmHg 63%
    17:00 +27°C° 0 mm 5 mps 761 mmHg 66%
    18:00 +26°C° 0 mm 5 mps 761 mmHg 70%
    19:00 +26°C° 0 mm 5 mps 762 mmHg 71%
    20:00 +26°C° 0 mm 5 mps 762 mmHg 72%
    21:00 +26°C° 0 mm 5 mps 763 mmHg 73%
    22:00 +25°C° 0 mm 4 mps 763 mmHg 74%
    23:00 +25°C° 0 mm 4 mps 763 mmHg 74%

    Day after tomorrow, 23 March, Saturday

    Time Temperature Precipitation Wind Pressure Humidity
    00:00 +25°C° 0 mm 4 mps 763 mmHg 75%
    01:00 +25°C° 0 mm 4 mps 762 mmHg 76%
    02:00 +25°C° 0 mm 3 mps 762 mmHg 77%
    03:00 +24°C° 0 mm 3 mps 762 mmHg 78%
    04:00 +24°C° 0.1 mm 3 mps 762 mmHg 78%
    05:00 +24°C° 0.1 mm 3 mps 762 mmHg 79%
    06:00 +24°C° 0.1 mm 3 mps 762 mmHg 79%
    07:00 +25°C° 0.1 mm 3 mps 762 mmHg 75%
    08:00 +26°C° 0.1 mm 4 mps 763 mmHg 71%
    09:00 +27°C° 0.1 mm 4 mps 764 mmHg 68%
    10:00 +28°C° 0 mm 4 mps 764 mmHg 62%
    11:00 +29°C° 0 mm 4 mps 763 mmHg 57%
    12:00 +30°C° 0 mm 4 mps 763 mmHg 52%
    13:00 +30°C° 0 mm 4 mps 762 mmHg 52%
    14:00 +30°C° 0 mm 4 mps 762 mmHg 52%
    15:00 +30°C° 0 mm 4 mps 761 mmHg 52%
    16:00 +28°C° 0 mm 4 mps 761 mmHg 55%
    17:00 +27°C° 0 mm 4 mps 761 mmHg 59%
    18:00 +26°C° 0 mm 4 mps 761 mmHg 62%
    19:00 +26°C° 0 mm 4 mps 762 mmHg 64%
    20:00 +25°C° 0 mm 4 mps 762 mmHg 66%
    21:00 +25°C° 0 mm 4 mps 763 mmHg 67%
    22:00 +25°C° 0 mm 4 mps 763 mmHg 69%
    23:00 +25°C° 0 mm 3 mps 763 mmHg 72%

    24 March, Sunday

    Time Temperature Precipitation Wind Pressure Humidity
    00:00 +25°C° 0 mm 3 mps 763 mmHg 74%
    01:00 +25°C° 0 mm 3 mps 763 mmHg 76%
    02:00 +24°C° 0 mm 2 mps 762 mmHg 78%
    03:00 +24°C° 0 mm 2 mps 762 mmHg 81%
    04:00 +24°C° 0.1 mm 2 mps 762 mmHg 83%
    05:00 +23°C° 0.1 mm 1 mps 762 mmHg 86%
    06:00 +23°C° 0.1 mm 1 mps 762 mmHg 88%
    07:00 +25°C° 0.1 mm 1 mps 763 mmHg 80%
    08:00 +27°C° 0.1 mm 1 mps 763 mmHg 72%
    09:00 +29°C° 0.1 mm 1 mps 764 mmHg 64%
    10:00 +30°C° 0.1 mm 2 mps 763 mmHg 61%
    11:00 +30°C° 0.1 mm 2 mps 763 mmHg 58%
    12:00 +30°C° 0.1 mm 3 mps 762 mmHg 55%
    13:00 +31°C° 0 mm 3 mps 762 mmHg 55%
    14:00 +31°C° 0 mm 3 mps 761 mmHg 54%
    15:00 +31°C° 0 mm 3 mps 760 mmHg 53%
    16:00 +30°C° 0 mm 3 mps 760 mmHg 60%
    17:00 +28°C° 0 mm 3 mps 760 mmHg 66%
    18:00 +27°C° 0 mm 4 mps 760 mmHg 72%
    19:00 +26°C° 0 mm 3 mps 761 mmHg 76%
    20:00 +26°C° 0 mm 3 mps 761 mmHg 79%
    21:00 +26°C° 0 mm 3 mps 762 mmHg 82%
    22:00 +25°C° 0.1 mm 3 mps 762 mmHg 85%
    23:00 +25°C° 0.1 mm 2 mps 762 mmHg 87%

    25 March, Monday

    Time Temperature Precipitation Wind Pressure Humidity
    00:00 +25°C° 0.1 mm 2 mps 761 mmHg 89%
    01:00 +25°C° 0.4 mm 2 mps 761 mmHg 91%
    02:00 +24°C° 0.4 mm 1 mps 761 mmHg 93%
    03:00 +24°C° 0.4 mm 1 mps 760 mmHg 95%
    04:00 +24°C° 0.6 mm 1 mps 760 mmHg 95%
    05:00 +24°C° 0.6 mm 1 mps 761 mmHg 95%
    06:00 +24°C° 0.6 mm 1 mps 761 mmHg 95%
    07:00 +25°C° 0.2 mm 1 mps 761 mmHg 92%
    08:00 +26°C° 0.2 mm 1 mps 762 mmHg 88%
    09:00 +27°C° 0.2 mm 1 mps 763 mmHg 84%
    10:00 +29°C° 0.1 mm 1 mps 762 mmHg 73%
    11:00 +31°C° 0.1 mm 2 mps 762 mmHg 62%
    12:00 +34°C° 0.1 mm 2 mps 761 mmHg 52%
    13:00 +32°C° 0 mm 2 mps 760 mmHg 52%
    14:00 +33°C° 0 mm 3 mps 760 mmHg 53%
    15:00 +33°C° 0 mm 3 mps 759 mmHg 53%
    16:00 +30°C° 0 mm 3 mps 759 mmHg 59%
    17:00 +29°C° 0 mm 3 mps 760 mmHg 65%
    18:00 +27°C° 0 mm 3 mps 760 mmHg 70%
    19:00 +27°C° 0 mm 3 mps 760 mmHg 73%
    20:00 +27°C° 0 mm 3 mps 761 mmHg 76%
    21:00 +26°C° 0 mm 3 mps 761 mmHg 79%
    22:00 +26°C° 0 mm 3 mps 761 mmHg 80%
    23:00 +26°C° 0 mm 3 mps 761 mmHg 82%

    26 March, Tuesday

    Time Temperature Precipitation Wind Pressure Humidity
    00:00 +26°C° 0 mm 3 mps 761 mmHg 84%
    01:00 +26°C° 0 mm 2 mps 760 mmHg 85%
    02:00 +26°C° 0 mm 2 mps 760 mmHg 87%
    03:00 +25°C° 0 mm 2 mps 760 mmHg 88%
    04:00 +25°C° 0.3 mm 2 mps 760 mmHg 90%
    05:00 +25°C° 0.3 mm 2 mps 761 mmHg 92%
    06:00 +25°C° 0.3 mm 2 mps 761 mmHg 94%
    07:00 +25°C° 1.1 mm 3 mps 762 mmHg 91%
    08:00 +26°C° 1.1 mm 3 mps 762 mmHg 89%
    09:00 +27°C° 1.1 mm 3 mps 763 mmHg 86%
    10:00 +28°C° 0.8 mm 3 mps 762 mmHg 82%
    11:00 +29°C° 0.8 mm 4 mps 762 mmHg 78%
    12:00 +30°C° 0.8 mm 4 mps 761 mmHg 74%
    13:00 +30°C° 0.1 mm 4 mps 761 mmHg 69%
    14:00 +32°C° 0.1 mm 4 mps 760 mmHg 64%
    15:00 +32°C° 0.1 mm 5 mps 760 mmHg 59%
    16:00 +30°C° 0 mm 5 mps 760 mmHg 65%
    17:00 +29°C° 0 mm 4 mps 760 mmHg 70%
    18:00 +27°C° 0 mm 4 mps 761 mmHg 76%
    19:00 +27°C° 0 mm 4 mps 761 mmHg 77%
    20:00 +27°C° 0 mm 4 mps 762 mmHg 78%
    21:00 +26°C° 0 mm 4 mps 762 mmHg 80%
    22:00 +26°C° 0 mm 4 mps 762 mmHg 80%
    23:00 +26°C° 0 mm 4 mps 762 mmHg 80%
    Show more